Date String (YYYY-MM-DD hh:mm:ss) UTC,Instrument flags,absolute air pressure of the measurement (hPa),sample flow rate (lpm),inlet stack bypass flow (lpm),air temperature of the measurement (°C),ambient temperature measured by the external sensor (°C),aerosol sample conditioner tube jacket temperature (°C),OPC LED temperature (°C),internal box temperature (°C),relative humidity of the measurement (%),span deviation,mass concentration of particles derived from Lorenz-Mie calculation of OPC scattering (μg/m³),mass concentration of particles derived from Lorenz-Mie calculation of OPC scattering (μg/m³),mass concentration of particles derived from Lorenz-Mie calculation of OPC scattering (μg/m³)
DateTimeUTC,F1_M11,P_M11,Q1_M11,Q2_M11,T1_M11,T2_M11,T3_M11,T4_M11,T5_M11,U1_M11,ZSPAN_M11,X0_M11,X2_M11,X1_M11
2024-01-29 09:00:00,SystemResetWarning,0837.4,5.01,000.00,023.8,022.5,000.0,032.2,025.1,13.6,0000.0,0002.19,0001.07,0000.76
2024-01-29 09:01:00,SystemResetWarning,0837.4,5.00,000.00,023.8,022.5,000.0,032.2,025.1,13.6,0000.0,0002.06,0001.01,0000.74
2024-01-29 09:02:00,SystemResetWarning,0837.4,5.00,000.00,023.8,022.5,000.0,032.2,025.1,13.6,0000.0,0002.01,0000.95,0000.72
2024-01-29 09:03:00,SystemResetWarning,0837.4,4.99,000.00,023.8,022.5,000.0,032.2,025.1,13.6,0000.0,0001.96,0000.92,0000.70
2024-01-29 09:04:00,SystemResetWarning,0837.4,5.00,000.00,023.8,022.5,000.0,032.2,025.1,13.6,0000.0,0001.81,0000.91,0000.67
2024-01-29 09:05:00,SystemResetWarning,0837.5,5.00,000.00,023.8,022.5,000.0,032.1,025.1,13.6,0000.0,0001.37,0000.89,0000.66
2024-01-29 09:06:00,SystemResetWarning,0837.5,5.01,000.00,023.8,022.5,000.0,032.1,025.1,13.6,0000.0,0001.28,0000.84,0000.64
2024-01-29 09:07:00,SystemResetWarning,0837.5,5.00,000.00,023.8,022.5,000.0,032.1,025.1,13.7,0000.0,0001.24,0000.81,0000.63
2024-01-29 09:08:00,SystemResetWarning,0837.5,5.00,000.00,023.8,022.5,000.0,032.1,025.1,13.6,0000.0,0001.17,0000.77,0000.62
2024-01-29 09:09:00,SystemResetWarning,0837.5,5.00,000.00,023.7,022.5,000.0,032.1,025.1,13.6,0000.0,0001.18,0000.77,0000.61
2024-01-29 09:10:00,SystemResetWarning,0837.5,5.00,000.00,023.7,022.5,000.0,032.1,025.1,13.6,0000.0,0001.19,0000.77,0000.61
2024-01-29 09:11:00,SystemResetWarning,0837.5,4.99,000.00,023.7,022.5,000.0,032.1,025.1,13.6,0000.0,0001.23,0000.77,0000.61
2024-01-29 09:12:00,SystemResetWarning,0837.6,5.00,000.00,023.7,022.4,000.0,032.1,025.1,13.6,0000.0,0002.03,0000.79,0000.62
2024-01-29 09:13:00,SystemResetWarning,0837.5,5.00,000.00,023.7,022.4,000.0,032.1,025.0,13.6,0000.0,0002.62,0000.81,0000.63
2024-01-29 09:14:00,SystemResetWarning,0837.5,5.00,000.00,023.7,022.4,000.0,032.1,025.0,13.6,0000.0,0002.67,0000.83,0000.65
2024-01-29 09:15:00,SystemResetWarning,0837.6,5.00,000.00,023.7,022.4,000.0,032.1,025.0,13.7,0000.0,0002.69,0000.85,0000.67
2024-01-29 09:16:00,SystemResetWarning,0837.6,5.00,000.00,023.7,022.4,000.0,032.1,025.0,13.7,0000.0,0002.68,0000.85,0000.68
2024-01-29 09:17:00,SystemResetWarning,0837.6,5.00,000.00,023.7,022.4,000.0,032.0,025.0,13.7,0000.0,0002.80,0000.87,0000.69
2024-01-29 09:18:00,SystemResetWarning,0837.6,4.99,000.00,023.7,022.4,000.0,032.0,025.0,13.7,0000.0,0002.90,0000.90,0000.71
2024-01-29 09:19:00,SystemResetWarning,0837.6,5.00,000.00,023.7,022.4,000.0,032.0,025.0,13.7,0000.0,0002.99,0000.93,0000.74
2024-01-29 09:20:00,SystemResetWarning,0837.6,5.00,000.00,023.6,022.4,000.0,032.0,025.0,13.7,0000.0,0003.00,0000.94,0000.75
2024-01-29 09:21:00,SystemResetWarning,0837.6,5.00,000.00,023.6,022.3,000.0,032.0,025.0,13.8,0000.0,0003.07,0000.95,0000.77
2024-01-29 09:22:00,SystemResetWarning,0837.6,5.00,000.00,023.6,022.3,000.0,032.0,025.0,13.7,0000.0,0003.01,0000.95,0000.78
2024-01-29 09:23:00,SystemResetWarning,0837.5,5.00,000.00,023.6,022.3,000.0,032.0,024.9,13.8,0000.0,0002.37,0000.96,0000.80
2024-01-29 09:24:00,SystemResetWarning,0837.5,5.00,000.00,023.6,022.3,000.0,032.0,024.9,13.8,0000.0,0001.66,0001.00,0000.82
2024-01-29 09:25:00,SystemResetWarning,0837.5,5.00,000.00,023.6,022.3,000.0,032.0,024.9,13.8,0000.0,0001.69,0001.02,0000.83
2024-01-29 09:26:00,SystemResetWarning,0837.5,5.00,000.00,023.6,022.3,000.0,032.0,024.9,13.8,0000.0,0001.67,0001.02,0000.84
2024-01-29 09:27:00,SystemResetWarning,0837.5,5.00,000.00,023.5,022.3,000.0,032.0,024.9,13.8,0000.0,0002.15,0001.06,0000.86
2024-01-29 09:28:00,SystemResetWarning,0837.5,4.99,000.00,023.5,022.3,000.0,031.9,024.9,13.8,0000.0,0003.03,0001.07,0000.87
2024-01-29 09:29:00,SystemResetWarning,0837.5,5.00,000.00,023.5,022.3,000.0,031.9,024.9,13.8,0000.0,0002.87,0001.05,0000.86
2024-01-29 09:30:00,SystemResetWarning,0837.5,5.00,000.00,023.5,022.3,000.0,031.9,024.9,13.8,0000.0,0002.85,0001.07,0000.87
2024-01-29 09:31:00,SystemResetWarning,0837.5,5.00,000.00,023.5,022.2,000.0,031.9,024.9,13.9,0000.0,0002.88,0001.10,0000.88
2024-01-29 09:32:00,SystemResetWarning,0837.5,5.00,000.00,023.5,022.2,000.0,031.9,024.9,13.8,0000.0,0002.79,0001.10,0000.89
2024-01-29 09:33:00,SystemResetWarning,0837.5,5.00,000.00,023.5,022.2,000.0,031.9,024.9,13.9,0000.0,0002.79,0001.11,0000.91
2024-01-29 09:34:00,SystemResetWarning,0837.6,5.00,000.00,023.5,022.2,000.0,031.9,024.9,13.9,0000.0,0002.76,0001.11,0000.92
2024-01-29 09:35:00,SystemResetWarning,0837.6,5.00,000.00,023.5,022.2,000.0,031.9,024.9,13.9,0000.0,0002.81,0001.09,0000.93
2024-01-29 09:36:00,SystemResetWarning,0837.5,5.00,000.00,023.5,022.2,000.0,031.9,024.9,13.9,0000.0,0002.81,0001.09,0000.93
2024-01-29 09:37:00,SystemResetWarning,0837.5,5.00,000.00,023.5,022.2,000.0,031.9,024.9,13.9,0000.0,0002.84,0001.11,0000.94
2024-01-29 09:38:00,SystemResetWarning,0837.5,5.00,000.00,023.5,022.2,000.0,031.8,024.9,13.8,0000.0,0002.67,0001.12,0000.95
2024-01-29 09:39:00,SystemResetWarning,0837.5,5.00,000.00,023.5,022.2,000.0,031.8,024.9,13.9,0000.0,0001.56,0001.14,0000.97
2024-01-29 09:40:00,SystemResetWarning,0837.5,5.00,000.00,023.5,022.2,000.0,031.8,024.8,13.9,0000.0,0001.60,0001.17,0000.98
2024-01-29 09:41:00,SystemResetWarning,0837.4,5.00,000.00,023.4,022.2,000.0,031.8,024.8,13.9,0000.0,0001.62,0001.17,0000.99
2024-01-29 09:42:00,SystemResetWarning,0837.4,5.00,000.00,023.4,022.2,000.0,031.8,024.8,13.9,0000.0,0001.62,0001.17,0000.99
2024-01-29 09:43:00,SystemResetWarning,0837.3,5.00,000.00,023.4,022.2,000.0,031.8,024.8,13.9,0000.0,0002.00,0001.20,0001.01
2024-01-29 09:44:00,SystemResetWarning,0837.2,5.00,000.00,023.4,022.2,000.0,031.8,024.8,14.0,0000.0,0002.22,0001.25,0001.02
2024-01-29 09:45:00,SystemResetWarning,0837.4,5.00,000.00,023.4,022.2,000.0,031.8,024.8,14.0,0000.0,0002.25,0001.25,0001.01
2024-01-29 09:46:00,SystemResetWarning,0837.3,5.00,000.00,023.4,022.2,000.0,031.8,024.8,13.9,0000.0,0002.19,0001.24,0001.00
2024-01-29 09:47:00,SystemResetWarning,0837.2,5.00,000.00,023.4,022.2,000.0,031.8,024.8,14.0,0000.0,0002.11,0001.23,0000.99
2024-01-29 09:48:00,SystemResetWarning,0837.2,5.00,000.00,023.4,022.2,000.0,031.8,024.8,14.0,0000.0,0002.18,0001.27,0000.99
2024-01-29 09:49:00,SystemResetWarning,0837.2,5.00,000.00,023.4,022.2,000.0,031.8,024.8,14.0,0000.0,0002.22,0001.27,0000.98
2024-01-29 09:50:00,SystemResetWarning,0837.2,5.00,000.00,023.4,022.2,000.0,031.8,024.8,14.0,0000.0,0002.18,0001.25,0000.96
2024-01-29 09:51:00,SystemResetWarning,0837.2,5.00,000.00,023.4,022.2,000.0,031.8,024.8,14.0,0000.0,0002.15,0001.23,0000.94
2024-01-29 09:52:00,SystemResetWarning,0837.2,5.00,000.00,023.4,022.3,000.0,031.8,024.8,13.9,0000.0,0002.14,0001.22,0000.92
2024-01-29 09:53:00,SystemResetWarning,0837.3,5.00,000.00,023.4,022.3,000.0,031.7,024.8,14.0,0000.0,0002.14,0001.21,0000.91
2024-01-29 09:54:00,SystemResetWarning,0837.2,5.00,000.00,023.4,022.3,000.0,031.7,024.8,14.0,0000.0,0001.89,0001.18,0000.90
2024-01-29 09:55:00,SystemResetWarning,0837.4,5.00,000.00,023.4,022.3,000.0,031.7,024.8,13.9,0000.0,0001.57,0001.14,0000.89
2024-01-29 09:56:00,SystemResetWarning,0837.3,5.00,000.00,023.4,022.3,000.0,031.7,024.8,13.9,0000.0,0001.55,0001.14,0000.89
2024-01-29 09:57:00,SystemResetWarning,0837.2,5.00,000.00,023.4,022.3,000.0,031.7,024.8,13.9,0000.0,0001.54,0001.13,0000.88
2024-01-29 09:58:00,SystemResetWarning,0837.2,5.00,000.00,023.4,022.4,000.0,031.7,024.8,13.9,0000.0,0001.56,0001.14,0000.88
2024-01-29 09:59:00,SystemResetWarning,0837.2,5.00,000.00,023.4,022.3,000.0,031.7,024.8,14.0,0000.0,0001.48,0001.10,0000.88
